Weather reports worldwide

Advertisment
Wattisham, United Kingdom (3590): temperature & dewpoint: 13.01.2019 11:00:00 - 19.01.2019 11:00:00 (GMT)Wattisham, United Kingdom (3590): temperature -20cm & temperature -100cm: 13.01.2019 11:00:00 - 19.01.2019 11:00:00 (GMT)Wattisham, United Kingdom (3590): wind speed & gusts: 13.01.2019 11:00:00 - 19.01.2019 11:00:00 (GMT)Wattisham, United Kingdom (3590): wind direction: 13.01.2019 11:00:00 - 19.01.2019 11:00:00 (GMT)Wattisham, United Kingdom (3590): reduced air pressure: 13.01.2019 11:00:00 - 19.01.2019 11:00:00 (GMT)Wattisham, United Kingdom (3590): visibility: 13.01.2019 11:00:00 - 19.01.2019 11:00:00 (GMT)Wattisham, United Kingdom (3590): sunshine duration: 13.01.2019 11:00:00 - 19.01.2019 11:00:00 (GMT)Wattisham, United Kingdom (3590): precipitation: 13.01.2019 11:00:00 - 19.01.2019 11:00:00 (GMT)
Date & Time tt [°C] td [°C] tt -20cm [°C] tt -100cm [°C] ff [km/h] ff [kn] fx [km/h] fx [kn] dd ppp [hPa] vv [km] sd [min] rr [mm]
19.01.2019 11:00:00 3,8 0,0 - - 22 12 - - SSE 1011,4 25 24 -
19.01.2019 10:00:00 1,7 -0,4 - - 13 7 - - SSE 1011,7 18 6 0,0
19.01.2019 09:00:00 0,9 -0,5 5,2 7,4 13 7 - - SSE 1011,7 10 0 0,0
19.01.2019 08:00:00 0,7 -0,5 - - 16 9 - - SSE 1011,6 13 0 0,0
19.01.2019 07:00:00 0,5 -0,5 - - 15 8 - - SSE 1011,7 13 0 0,0
19.01.2019 06:00:00 0,9 -0,4 - - 13 7 - - SSE 1011,9 13 0 0,0
19.01.2019 05:00:00 0,9 -0,6 - - 16 9 - - SSE 1012,1 14 0 0,0
19.01.2019 04:00:00 1,4 -0,3 - - 16 9 - - SSE 1012,5 14 0 0,0
19.01.2019 03:00:00 1,8 0,1 - - 16 9 - - S 1013,0 14 0 0,0
19.01.2019 02:00:00 1,5 0,0 - - 15 8 - - SSE 1013,2 12 0 0,0
19.01.2019 01:00:00 1,6 0,1 - - 15 8 - - SSE 1013,5 11 0 0,0
19.01.2019 00:00:00 2,0 0,3 - - 16 9 - - S 1014,1 14 - 0,0
18.01.2019 23:00:00 2,2 0,4 - - 16 9 - - SSE 1014,4 16 0 0,0
18.01.2019 22:00:00 2,6 0,4 - - 18 10 - - S 1014,4 17 0 0,0
18.01.2019 21:00:00 2,3 0,4 - - 16 9 - - SSE 1014,6 19 0 0,0
18.01.2019 20:00:00 2,9 0,0 - - 13 7 - - SSE 1014,9 27 0 0,0
18.01.2019 19:00:00 3,0 0,0 - - 15 8 - - S 1015,1 27 0 0,0
18.01.2019 18:00:00 3,6 -0,3 - - 16 9 - - S 1015,3 10 0 0,0
18.01.2019 17:00:00 3,6 1,0 - - 15 8 - - S 1015,5 10 0 0,0
18.01.2019 16:00:00 4,0 0,4 - - 15 8 - - SSE 1015,8 10 0 0,0
18.01.2019 15:00:00 4,7 0,4 - - 15 8 - - S 1016,0 10 0 0,0
18.01.2019 14:00:00 4,7 0,7 - - 13 7 - - S 1016,6 10 0 0,0
18.01.2019 13:00:00 4,4 0,3 - - 15 8 - - S 1017,3 10 54 0,0
18.01.2019 12:00:00 2,7 -0,3 - - 13 7 - - S 1018,1 10 0 0,0
18.01.2019 11:00:00 1,1 -1,0 - - 11 6 - - S 1018,6 10 0 0,0
18.01.2019 10:00:00 -0,3 -2,6 - - 9 5 - - S 1018,8 18 0 0,0
18.01.2019 09:00:00 -0,6 -2,8 5,7 7,5 8 4 - - S 1018,5 10 0 0,0
18.01.2019 08:00:00 -1,7 -3,4 - - 8 4 - - SSW 1018,4 10 0 0,0
18.01.2019 07:00:00 -1,5 -3,2 - - 2 1 - - SSW 1018,2 10 0 0,0
18.01.2019 06:00:00 -1,7 -3,5 - - 8 4 - - SW 1018,4 20 0 0,0
18.01.2019 05:00:00 -1,3 -2,9 - - 4 2 - - W 1018,5 30 0 0,0
18.01.2019 04:00:00 -1,8 -3,5 - - 5 3 - - WSW 1018,8 10 0 0,0
18.01.2019 03:00:00 -1,8 -3,5 - - 5 3 - - W 1018,9 30 0 0,0
18.01.2019 02:00:00 -1,0 -3,1 - - 9 5 - - NW 1018,8 26 0 0,0
18.01.2019 01:00:00 -0,1 -3,0 - - 13 7 - - NNW 1018,6 24 0 0,0
18.01.2019 00:00:00 0,0 -3,0 - - 13 7 - - NW 1018,3 10 - 0,0
17.01.2019 23:00:00 0,1 -2,9 - - 15 8 - - NW 1018,1 10 0 0,0
17.01.2019 22:00:00 0,4 -3,0 - - 18 10 - - NW 1017,7 10 0 0,0
17.01.2019 21:00:00 0,8 -2,7 - - 18 10 - - NW 1017,1 10 0 0,0
17.01.2019 20:00:00 1,3 -2,5 - - 24 13 - - NW 1016,6 40 0 0,0
17.01.2019 19:00:00 1,5 -1,8 - - 24 13 - - NW 1015,9 10 0 0,0
17.01.2019 18:00:00 1,5 -1,4 - - 24 13 - - NW 1015,2 10 0 0,0
17.01.2019 17:00:00 2,1 -1,4 - - 26 14 - - WNW 1014,3 10 0 0,0
17.01.2019 16:00:00 2,6 -1,3 - - 24 13 - - NW 1013,2 10 12 0,0
17.01.2019 15:00:00 2,8 -1,5 - - 29 16 48 26 NW 1011,9 10 36 0,0
17.01.2019 14:00:00 2,7 -2,5 - - 31 17 52 28 NW 1011,0 10 54 0,0
17.01.2019 13:00:00 2,6 -2,8 - - 34 18 50 27 NW 1010,3 10 60 0,0
17.01.2019 12:00:00 2,3 -2,5 - - 29 16 50 27 NW 1009,8 10 60 0,0
17.01.2019 11:00:00 1,6 -2,4 - - 29 16 46 25 NW 1009,3 10 60 0,0
17.01.2019 10:00:00 1,0 -2,1 - - 29 16 - - NW 1008,4 10 48 0,0
17.01.2019 09:00:00 0,9 -0,5 6,5 7,5 29 16 50 27 NW 1007,2 10 12 0,2
17.01.2019 08:00:00 2,1 0,8 - - 26 14 - - NNW 1005,8 10 0 0,0
17.01.2019 07:00:00 2,2 1,1 - - 24 13 - - NW 1004,4 10 0 0,0
17.01.2019 06:00:00 2,1 1,2 - - 21 11 - - NW 1003,3 10 0 0,0
17.01.2019 05:00:00 2,4 1,8 - - 15 8 - - WNW 1002,5 9 0 0,0
17.01.2019 04:00:00 3,0 2,5 - - 11 6 - - W 1002,2 13 0 0,6
17.01.2019 03:00:00 3,2 2,4 - - 15 8 - - W 1002,2 14 0 1,8
17.01.2019 02:00:00 2,6 2,5 - - 22 12 - - W 1002,3 3,1 0 0,4
17.01.2019 01:00:00 1,4 1,3 - - 11 6 - - SW 1002,1 4,3 0 0,0
17.01.2019 00:00:00 1,6 1,5 - - 13 7 - - WSW 1002,4 10 - 0,0
16.01.2019 23:00:00 1,5 1,3 - - 11 6 - - WSW 1002,6 10 0 0,0
16.01.2019 22:00:00 1,6 1,3 - - 11 6 - - WSW 1002,6 10 0 0,0
16.01.2019 21:00:00 2,9 2,4 - - 15 8 - - W 1002,0 10 0 0,0
16.01.2019 20:00:00 3,7 3,1 - - 15 8 - - W 1001,7 10 0 0,0
16.01.2019 19:00:00 4,2 3,7 - - 11 6 - - W 1001,4 10 0 0,0
16.01.2019 18:00:00 4,6 3,7 - - 16 9 - - NW 1001,3 10 0 1,0
16.01.2019 17:00:00 5,3 4,6 - - 26 14 - - NW 1000,9 5 0 0,4
16.01.2019 16:00:00 8,0 7,3 - - 21 11 - - SW 1000,0 10 0 0,0
16.01.2019 15:00:00 8,0 7,3 - - 24 13 - - SW 1000,5 10 0 0,2
16.01.2019 14:00:00 8,2 7,1 - - 26 14 - - SW 1001,1 10 0 0,0
16.01.2019 13:00:00 8,3 7,0 - - 26 14 - - SSW 1002,1 10 0 0,0
16.01.2019 12:00:00 8,0 7,2 - - 22 12 - - SSW 1003,3 10 0 0,0
16.01.2019 11:00:00 7,8 7,0 - - 26 14 - - SSW 1004,5 15 0 0,0
16.01.2019 10:00:00 7,8 6,9 - - 26 14 - - SSW 1005,2 10 0 0,0
16.01.2019 09:00:00 7,4 6,8 6,7 7,7 22 12 - - SSW 1005,7 10 0 0,0
16.01.2019 08:00:00 7,3 6,9 - - 24 13 - - SSW 1006,1 5 0 0,0
16.01.2019 07:00:00 7,8 6,4 - - 24 13 - - SW 1006,7 35 0 0,0
16.01.2019 06:00:00 7,9 6,2 - - 21 11 - - SW 1007,3 45 0 0,0
16.01.2019 05:00:00 7,8 6,2 - - 22 12 - - SW 1008,2 50 0 0,0
16.01.2019 04:00:00 7,5 5,8 - - 22 12 - - SW 1009,0 10 0 0,0
16.01.2019 03:00:00 7,2 5,4 - - 18 10 - - SW 1009,9 50 0 0,0
16.01.2019 02:00:00 7,1 5,0 - - 22 12 - - SW 1010,7 50 0 0,0
16.01.2019 01:00:00 7,2 4,7 - - 18 10 - - SW 1011,3 50 0 0,0
16.01.2019 00:00:00 7,5 4,8 - - 21 11 - - SW 1012,0 50 - 0,0
15.01.2019 23:00:00 7,5 5,2 - - 21 11 - - WSW 1012,9 10 0 0,0
15.01.2019 22:00:00 7,3 5,5 - - 18 10 - - WSW 1013,5 10 0 0,0
15.01.2019 21:00:00 6,9 5,6 - - 21 11 - - WSW 1014,1 10 0 0,0
15.01.2019 20:00:00 6,9 6,1 - - 18 10 - - WSW 1014,5 10 0 0,0
15.01.2019 19:00:00 6,9 5,5 - - 18 10 - - WSW 1015,0 10 0 0,0
15.01.2019 18:00:00 7,4 5,5 - - 16 9 - - WSW 1015,3 10 0 0,0
15.01.2019 17:00:00 7,0 5,5 - - 15 8 - - WSW 1015,7 10 0 0,0
15.01.2019 16:00:00 7,5 5,8 - - 16 9 - - WSW 1016,2 10 0 0,0
15.01.2019 15:00:00 7,4 5,6 - - 18 10 - - WSW 1016,5 10 0 0,0
15.01.2019 14:00:00 7,4 5,5 - - 22 12 - - W 1016,8 10 42 0,0
15.01.2019 13:00:00 8,2 5,0 - - 28 15 - - W 1017,2 10 60 0,0
15.01.2019 12:00:00 7,9 5,1 - - 24 13 - - WSW 1017,9 10 18 0,0
15.01.2019 11:00:00 6,5 4,6 - - 18 10 - - WSW 1018,6 10 0 0,0
15.01.2019 10:00:00 5,7 3,8 - - 21 11 - - WSW 1018,8 10 0 0,0
15.01.2019 09:00:00 4,8 3,2 6,2 7,7 16 9 - - WSW 1019,1 10 0 0,0
15.01.2019 08:00:00 3,6 2,5 - - 16 9 - - WSW 1019,2 10 0 0,0
15.01.2019 07:00:00 2,5 1,5 - - 18 10 - - W 1019,4 10 0 0,0
15.01.2019 06:00:00 1,6 0,7 - - 16 9 - - WSW 1019,5 27 0 0,0
15.01.2019 05:00:00 1,6 0,6 - - 16 9 - - WSW 1019,8 22 0 0,0
15.01.2019 04:00:00 1,4 0,7 - - 15 8 - - WSW 1020,3 23 0 0,0
15.01.2019 03:00:00 1,7 0,9 - - 16 9 - - WSW 1020,9 19 0 0,0
15.01.2019 02:00:00 1,7 1,2 - - 13 7 - - WSW 1021,2 16 0 0,0
15.01.2019 01:00:00 1,8 1,2 - - 15 8 - - W 1021,5 16 0 0,0
15.01.2019 00:00:00 2,3 1,9 - - 13 7 - - WSW 1021,4 12 - 0,0
14.01.2019 23:00:00 1,5 1,4 - - 11 6 - - W 1021,9 10 0 0,0
14.01.2019 22:00:00 1,2 1,0 - - 13 7 - - WSW 1021,9 10 0 0,0
14.01.2019 21:00:00 1,4 1,1 - - 11 6 - - WSW 1022,0 9 0 0,0
14.01.2019 20:00:00 2,5 2,2 - - 8 4 - - SW 1021,9 12 0 0,0
14.01.2019 19:00:00 1,9 1,4 - - 9 5 - - WSW 1021,9 10 0 0,0
14.01.2019 18:00:00 2,8 1,6 - - 8 4 - - WSW 1021,9 10 0 0,0
14.01.2019 17:00:00 4,1 2,2 - - 5 3 - - WNW 1021,7 10 0 0,0
14.01.2019 16:00:00 5,3 2,9 - - 11 6 - - NW 1021,5 10 24 0,0
14.01.2019 15:00:00 6,6 3,0 - - 15 8 - - NNW 1020,7 10 18 0,0
14.01.2019 14:00:00 7,5 4,3 - - 18 10 - - WNW 1020,1 10 54 0,0
14.01.2019 13:00:00 6,8 3,9 - - 13 7 - - NW 1020,2 10 18 0,0
14.01.2019 12:00:00 6,6 3,6 - - 21 11 - - NW 1020,1 30 6 0,0
14.01.2019 11:00:00 6,3 3,3 - - 21 11 - - NW 1019,7 10 48 0,0
14.01.2019 10:00:00 5,6 3,5 - - 16 9 - - NW 1019,1 10 54 0,0
14.01.2019 09:00:00 4,5 2,9 7,0 7,7 16 9 - - NW 1018,4 10 6 0,0
14.01.2019 08:00:00 4,2 2,7 - - 16 9 - - NW 1017,7 10 0 0,0
14.01.2019 07:00:00 4,3 2,7 - - 16 9 - - NW 1016,8 17 0 0,0
14.01.2019 06:00:00 4,7 2,8 - - 21 11 - - NW 1016,2 16 0 0,0
14.01.2019 05:00:00 4,9 2,7 - - 22 12 - - WNW 1015,2 18 0 0,0
14.01.2019 04:00:00 5,2 3,1 - - 21 11 - - WNW 1014,4 20 0 0,0
14.01.2019 03:00:00 5,4 3,1 - - 24 13 - - WNW 1013,7 18 0 0,0
14.01.2019 02:00:00 5,7 2,9 - - 26 14 46 25 NW 1013,0 17 0 0,0
14.01.2019 01:00:00 6,0 3,0 - - 29 16 46 25 NW 1012,1 22 0 0,0
14.01.2019 00:00:00 6,0 2,9 - - 26 14 - - WNW 1011,7 10 - 0,0
13.01.2019 23:00:00 6,3 3,2 - - 24 13 - - WNW 1011,3 10 0 0,0
13.01.2019 22:00:00 6,5 2,8 - - 29 16 48 26 WNW 1010,7 30 0 0,0
13.01.2019 21:00:00 7,0 3,0 - - 29 16 50 27 WNW 1010,4 19 0 0,0
13.01.2019 20:00:00 7,9 3,7 - - 34 18 55 30 NW 1009,8 30 0 0,0
13.01.2019 19:00:00 8,3 5,9 - - 31 17 57 31 NW 1009,1 40 0 0,4
13.01.2019 18:00:00 8,9 7,0 - - 37 20 55 30 NW 1008,7 4,2 0 0,2
13.01.2019 17:00:00 10,0 6,8 - - 34 18 54 29 WNW 1007,8 50 0 0,0
13.01.2019 16:00:00 10,1 7,2 - - 29 16 48 26 WNW 1008,1 45 0 0,0
13.01.2019 15:00:00 9,7 8,0 - - 26 14 46 25 WNW 1008,7 40 0 0,0
13.01.2019 14:00:00 9,9 7,3 - - 34 18 54 29 W 1008,6 10 0 0,0
13.01.2019 13:00:00 10,4 7,4 - - 39 21 57 31 W 1008,4 40 0 0,0
13.01.2019 12:00:00 10,1 6,7 - - 35 19 54 29 WNW 1009,5 45 0 0,0
13.01.2019 11:00:00 10,0 6,8 - - 37 20 54 29 WNW 1010,0 45 0 0,0

tt = temperature
td = dewpoint
tt -20cm = temperature -20cm
tt -100cm = temperature -100cm
ff = wind speed
fx = gusts
dd = wind direction
ppp = reduced air pressure
vv = visibility
sd = sunshine duration
rr = precipitation

Next stations